DELTA 1 DEB

Satellite information

Favourite Embed

Satellite Type and Status

DEBRISIN ORBIT

Key statistics

Satellite DELTA 1 DEB at a glance.

Uptime

18289

Days in orbit

Revolutions

≈ 12.9

Per day

Orbit

SSO

Sun Synchronous Orbit

Inclination

99.9

Latest

Satellite identification and parameters

Extended collection of information and parameters for DELTA 1 DEB.

Object identification

Identified? True

Debris? True

Object name: DELTA 1 DEB

International designator: 1975-052KV

Object number (NORAD): 26841

Object ID (CCSDS): 26841

Country: UNITED STATES OF AMERICA (US)

Current information (Y/N): Y

RCS size: SMALL

Orbital parameters

Period: 111.753 minutes

Inclination: 99.8791 deg

SMA: 7685.399 km

Apoapsis: 1693.622 km

Periapsis: 920.906 km

RAAN: 191.4429 deg

Eccentricy: 0.0502717

Argument of periapsis: 221.3623 deg

Mean anomaly: 164.4507 deg

Mean motion: 12.88555535 rev/day

Mean motion (dot): 0.00001269 rev/day2

B* drag term: 0.0029282 1/REarth

Two-line elements (TLE)

Creation date: July 7, 2025, 6:36 a.m.

Reference frame: TEME

Reference center: EARTH

Epoch: July 6, 2025, 11:24 p.m. UTC

TLE line 0: 0 DELTA 1 DEB

TLE line 1: 1 26841U 75052KV 25187.97523725 .00001269 00000-0 29282-2 0 9996

TLE line 2: 2 26841 99.8791 191.4429 0502717 221.3623 164.4507 12.88555535553598

Live tracking on map

Real-time ground track for satellite DELTA 1 DEB.

In-orbit conjunctions

A list of the most updated potential collisions computed for object DELTA 1 DEB.

Target Orbit TCA Probability of collision Miss distance Type
CZ-4C DEB LEO 2025-02-24 03:19:34 0.0003257882 43.0 (m) DEBRIS
COSMOS 2251 DEB LEO 2024-11-11 20:50:51 0.0004315324 398.0 (m) DEBRIS
SL-8 R/B LEO 2024-10-21 14:08:57 0.000201138 230.0 (m) ROCKET BODY

Associated space launch

Experimental meteorological satellite

DELTA 1 DEB was lifted into orbit during the mission ‘Delta 2910 | Nimbus 6’, on board a Delta 2910 space rocket.

The launch took place on June 12, 1975, 8:12 a.m. from Space Launch Complex 2W.

For more information about the launch, click the button.

Launch to space Delta 2910 | Nimbus 6
Delta 2910 | Nimbus 6

Agency: N/A

Status: Launch Successful

Launch date: June 12, 1975, 8:12 a.m. UTC

Rocket: Delta 2910

Launch pad: Space Launch Complex 2W

Location: Vandenberg SFB, CA, USA

...

Latest news about this satellite

There are no fresh news available about this satellite. Check back as we update our databases every day.


Newsletter sign-up

Weekly statistics, charts and insights to help you stay on top of the space industry.